This is the latest recevied weather packets stored in our database for station/object W3JBS-2. If no packets are shown the sender has not sent any weather packets the latest 10 day(s).
| Time | Temp. | Humidity | Pressure | Rain* | Wind** | Luminosity | Snow |
|---|---|---|---|---|---|---|---|
| 1787441782 | 22.22° C | 77% | 1036.6 hPa | 0 mm | - | 1765 W/m² | - |
| 1787440882 | 22.78° C | 76% | 1036.8 hPa | 0 mm | - | 1765 W/m² | - |
| 1787439982 | 22.78° C | 74% | 1036.9 hPa | 0 mm | - | 1765 W/m² | - |
| 1787439081 | 23.33° C | 74% | 1032.3 hPa | 0 mm | - | 1763 W/m² | - |
| 1787438182 | 23.33° C | 73% | 1036.6 hPa | 0 mm | - | 1763 W/m² | - |
| 1787437282 | 23.89° C | 73% | 1036.5 hPa | 0 mm | - | 1761 W/m² | - |
| 1787436382 | 24.44° C | 73% | 1036.8 hPa | 0 mm | - | 1761 W/m² | - |
| 1787435482 | 24.44° C | 72% | 1034.2 hPa | 0 mm | - | 1761 W/m² | - |
| 1787434582 | 25° C | 68% | 1036.8 hPa | 0 mm | - | 1760 W/m² | - |
| 1787433682 | 25° C | 67% | 1031.2 hPa | 0 mm | - | 1760 W/m² | - |
| 1787432782 | 25.56° C | 69% | 1036.9 hPa | 0 mm | - | 1760 W/m² | - |
| 1787431882 | 25.56° C | 67% | 1037 hPa | 0 mm | - | 1758 W/m² | - |
| 1787430982 | 26.11° C | 67% | 1036.6 hPa | 0 mm | - | 1758 W/m² | - |
| 1787430082 | 26.11° C | 68% | 1032.3 hPa | 0 mm | - | 1754 W/m² | - |
| 1787429182 | 26.11° C | 65% | 1026 hPa | 0 mm | - | 1751 W/m² | - |
| 1787427382 | 25.56° C | 63% | 1037.5 hPa | 0 mm | - | 1746 W/m² | - |
| 1787426482 | 26.11° C | 67% | 1029.3 hPa | 0 mm | - | 1746 W/m² | - |
| 1787425582 | 25.56° C | 65% | 1030.9 hPa | 0 mm | - | 1737 W/m² | - |
| 1787424682 | 24.44° C | 71% | 1036.1 hPa | 0 mm | - | 1735 W/m² | - |
| 1787423782 | 23.89° C | 70% | 1033.3 hPa | 0 mm | - | 1737 W/m² | - |
| 1787422882 | 23.89° C | 74% | 1039.6 hPa | 0 mm | - | 1737 W/m² | - |
| 1787421982 | 23.89° C | 73% | 1033.7 hPa | 0 mm | - | 1737 W/m² | - |
| 1787421082 | 23.89° C | 74% | 1038.1 hPa | 0 mm | - | 1740 W/m² | - |
| 1787420182 | 23.89° C | 74% | 1023.5 hPa | 0 mm | - | 1742 W/m² | - |
| 1787419282 | 23.89° C | 72% | 1027.1 hPa | 0 mm | - | 1740 W/m² | - |
* Rain latest hour (hover to see other rain measurements)
** Current wind speed in m/s (hover to see current wind gust speed)